When you browse on this site, cookies collect data to enhance your experience and personalize the content and advertising you see.
Visit our Privacy Policy to learn more. By continuing to use the site, you agree to this use of cookies and data.
  • In Portugal
  • List of Countries
  • For 7 days
  • Water Temperature
  • Satellite Maps
  • Weather Map
  • Weather Widgets
  • user-avatar
    Login

    Hourly Weather Lusaka

    Today, 24 March, Sunday

    Time Temperature Precipitation Wind Pressure Humidity
    00:00 +19°C° 0 mm 2 mps 657 mmHg 85%
    01:00 +19°C° 0 mm 2 mps 657 mmHg 86%
    02:00 +18°C° 0 mm 2 mps 657 mmHg 87%
    03:00 +18°C° 0 mm 2 mps 657 mmHg 89%
    04:00 +18°C° 0 mm 2 mps 657 mmHg 91%
    05:00 +18°C° 0 mm 2 mps 657 mmHg 93%
    06:00 +19°C° 0 mm 3 mps 658 mmHg 89%
    07:00 +20°C° 0 mm 4 mps 658 mmHg 84%
    08:00 +21°C° 0 mm 4 mps 659 mmHg 79%
    09:00 +22°C° 0 mm 4 mps 659 mmHg 73%
    10:00 +23°C° 0 mm 4 mps 659 mmHg 67%
    11:00 +26°C° 0 mm 4 mps 660 mmHg 60%
    12:00 +27°C° 0 mm 4 mps 659 mmHg 57%
    13:00 +28°C° 0 mm 3 mps 659 mmHg 53%
    14:00 +29°C° 0 mm 3 mps 658 mmHg 49%
    15:00 +28°C° 0 mm 3 mps 657 mmHg 51%
    16:00 +28°C° 0 mm 3 mps 657 mmHg 52%
    17:00 +28°C° 0 mm 2 mps 656 mmHg 54%
    18:00 +26°C° 0 mm 2 mps 656 mmHg 62%
    19:00 +24°C° 0 mm 2 mps 656 mmHg 70%
    20:00 +21°C° 0 mm 2 mps 656 mmHg 78%
    21:00 +20°C° 0 mm 2 mps 656 mmHg 80%
    22:00 +20°C° 0 mm 2 mps 657 mmHg 83%
    23:00 +20°C° 0 mm 1 mps 657 mmHg 86%

    Tomorrow, 25 March, Monday

    Time Temperature Precipitation Wind Pressure Humidity
    00:00 +20°C° 0 mm 1 mps 657 mmHg 87%
    01:00 +19°C° 0 mm 1 mps 656 mmHg 89%
    02:00 +19°C° 0 mm 1 mps 656 mmHg 91%
    03:00 +19°C° 0 mm 1 mps 656 mmHg 91%
    04:00 +19°C° 0 mm 1 mps 656 mmHg 92%
    05:00 +18°C° 0 mm 1 mps 656 mmHg 92%
    06:00 +19°C° 0 mm 2 mps 656 mmHg 87%
    07:00 +20°C° 0 mm 2 mps 657 mmHg 82%
    08:00 +21°C° 0 mm 2 mps 658 mmHg 76%
    09:00 +25°C° 0 mm 2 mps 658 mmHg 67%
    10:00 +27°C° 0 mm 3 mps 659 mmHg 58%
    11:00 +29°C° 0 mm 3 mps 659 mmHg 49%
    12:00 +30°C° 0 mm 2 mps 659 mmHg 45%
    13:00 +31°C° 0 mm 2 mps 658 mmHg 42%
    14:00 +32°C° 0 mm 2 mps 657 mmHg 38%
    15:00 +31°C° 0 mm 2 mps 656 mmHg 41%
    16:00 +30°C° 0 mm 2 mps 656 mmHg 44%
    17:00 +29°C° 0 mm 2 mps 655 mmHg 48%
    18:00 +27°C° 0 mm 2 mps 655 mmHg 53%
    19:00 +25°C° 0 mm 1 mps 655 mmHg 59%
    20:00 +23°C° 0 mm 1 mps 655 mmHg 64%
    21:00 +23°C° 0 mm 1 mps 655 mmHg 68%
    22:00 +22°C° 0 mm 1 mps 656 mmHg 71%
    23:00 +21°C° 0 mm 1 mps 656 mmHg 74%

    Day after tomorrow, 26 March, Tuesday

    Time Temperature Precipitation Wind Pressure Humidity
    00:00 +21°C° 0 mm 1 mps 655 mmHg 76%
    01:00 +20°C° 0 mm 1 mps 655 mmHg 78%
    02:00 +20°C° 0 mm 1 mps 655 mmHg 81%
    03:00 +20°C° 0 mm 1 mps 655 mmHg 82%
    04:00 +19°C° 0 mm 1 mps 655 mmHg 83%
    05:00 +19°C° 0 mm 1 mps 655 mmHg 84%
    06:00 +21°C° 0 mm 1 mps 656 mmHg 78%
    07:00 +22°C° 0 mm 1 mps 657 mmHg 72%
    08:00 +24°C° 0 mm 1 mps 658 mmHg 66%
    09:00 +26°C° 0 mm 2 mps 658 mmHg 58%
    10:00 +28°C° 0 mm 2 mps 659 mmHg 51%
    11:00 +31°C° 0 mm 2 mps 660 mmHg 43%
    12:00 +31°C° 0 mm 2 mps 659 mmHg 41%
    13:00 +31°C° 0 mm 2 mps 658 mmHg 39%
    14:00 +32°C° 0 mm 2 mps 657 mmHg 37%
    15:00 +31°C° 0 mm 2 mps 657 mmHg 40%
    16:00 +30°C° 0 mm 2 mps 657 mmHg 43%
    17:00 +30°C° 0 mm 2 mps 656 mmHg 47%
    18:00 +28°C° 0 mm 2 mps 656 mmHg 52%
    19:00 +26°C° 0 mm 2 mps 657 mmHg 57%
    20:00 +24°C° 0 mm 2 mps 657 mmHg 62%
    21:00 +24°C° 0 mm 2 mps 657 mmHg 63%
    22:00 +23°C° 0 mm 2 mps 657 mmHg 64%
    23:00 +21°C° 0 mm 2 mps 658 mmHg 66%

    27 March, Wednesday

    Time Temperature Precipitation Wind Pressure Humidity
    00:00 +21°C° 0 mm 2 mps 658 mmHg 67%
    01:00 +21°C° 0 mm 2 mps 657 mmHg 69%
    02:00 +20°C° 0 mm 2 mps 657 mmHg 70%
    03:00 +20°C° 0 mm 2 mps 657 mmHg 71%
    04:00 +20°C° 0 mm 2 mps 657 mmHg 72%
    05:00 +19°C° 0 mm 3 mps 658 mmHg 72%
    06:00 +20°C° 0 mm 3 mps 658 mmHg 71%
    07:00 +21°C° 0 mm 4 mps 659 mmHg 69%
    08:00 +22°C° 0 mm 4 mps 660 mmHg 67%
    09:00 +23°C° 0 mm 4 mps 661 mmHg 60%
    10:00 +26°C° 0 mm 4 mps 661 mmHg 53%
    11:00 +28°C° 0 mm 4 mps 662 mmHg 46%
    12:00 +29°C° 0 mm 4 mps 661 mmHg 44%
    13:00 +29°C° 0 mm 4 mps 660 mmHg 42%
    14:00 +30°C° 0 mm 4 mps 659 mmHg 40%
    15:00 +30°C° 0 mm 3 mps 659 mmHg 42%
    16:00 +29°C° 0 mm 3 mps 659 mmHg 45%
    17:00 +28°C° 0 mm 3 mps 658 mmHg 48%
    18:00 +26°C° 0 mm 2 mps 659 mmHg 53%
    19:00 +24°C° 0 mm 2 mps 659 mmHg 59%
    20:00 +23°C° 0 mm 2 mps 659 mmHg 64%
    21:00 +21°C° 0 mm 2 mps 659 mmHg 66%
    22:00 +20°C° 0 mm 2 mps 659 mmHg 68%
    23:00 +20°C° 0 mm 2 mps 659 mmHg 70%

    28 March, Thursday

    Time Temperature Precipitation Wind Pressure Humidity
    00:00 +19°C° 0 mm 2 mps 659 mmHg 71%
    01:00 +19°C° 0 mm 2 mps 658 mmHg 73%
    02:00 +19°C° 0 mm 2 mps 658 mmHg 74%
    03:00 +18°C° 0 mm 2 mps 658 mmHg 77%
    04:00 +18°C° 0 mm 2 mps 658 mmHg 80%
    05:00 +19°C° 0 mm 1 mps 658 mmHg 83%
    06:00 +19°C° 0 mm 2 mps 659 mmHg 79%
    07:00 +20°C° 0 mm 2 mps 660 mmHg 75%
    08:00 +22°C° 0 mm 3 mps 661 mmHg 72%
    09:00 +25°C° 0 mm 3 mps 661 mmHg 64%
    10:00 +27°C° 0 mm 3 mps 661 mmHg 56%
    11:00 +29°C° 0 mm 3 mps 661 mmHg 49%
    12:00 +30°C° 0 mm 3 mps 661 mmHg 45%
    13:00 +31°C° 0 mm 3 mps 660 mmHg 42%
    14:00 +33°C° 0 mm 3 mps 659 mmHg 39%
    15:00 +31°C° 0 mm 3 mps 659 mmHg 41%
    16:00 +30°C° 0 mm 3 mps 658 mmHg 44%
    17:00 +29°C° 0 mm 3 mps 658 mmHg 47%
    18:00 +28°C° 0 mm 2 mps 658 mmHg 52%
    19:00 +26°C° 0 mm 2 mps 658 mmHg 57%
    20:00 +24°C° 0 mm 1 mps 658 mmHg 62%
    21:00 +23°C° 0 mm 1 mps 658 mmHg 65%
    22:00 +22°C° 0 mm 1 mps 658 mmHg 68%
    23:00 +22°C° 0 mm 1 mps 658 mmHg 71%

    29 March, Friday

    Time Temperature Precipitation Wind Pressure Humidity
    00:00 +21°C° 0 mm 1 mps 657 mmHg 73%
    01:00 +21°C° 0 mm 1 mps 657 mmHg 75%
    02:00 +20°C° 0 mm 1 mps 656 mmHg 77%
    03:00 +20°C° 0 mm 1 mps 657 mmHg 78%
    04:00 +20°C° 0 mm 1 mps 657 mmHg 78%
    05:00 +19°C° 0 mm 1 mps 657 mmHg 79%
    06:00 +21°C° 0 mm 1 mps 658 mmHg 73%
    07:00 +23°C° 0 mm 1 mps 658 mmHg 67%
    08:00 +24°C° 0 mm 1 mps 659 mmHg 61%
    09:00 +27°C° 0 mm 1 mps 660 mmHg 54%
    10:00 +29°C° 0 mm 2 mps 660 mmHg 46%
    11:00 +31°C° 0 mm 2 mps 660 mmHg 38%
    12:00 +32°C° 0 mm 2 mps 660 mmHg 34%
    13:00 +34°C° 0 mm 3 mps 659 mmHg 30%
    14:00 +34°C° 0 mm 4 mps 658 mmHg 26%
    15:00 +33°C° 0 mm 3 mps 658 mmHg 30%
    16:00 +31°C° 0 mm 3 mps 657 mmHg 34%
    17:00 +30°C° 0 mm 3 mps 657 mmHg 37%
    18:00 +28°C° 0 mm 3 mps 657 mmHg 43%
    19:00 +26°C° 0 mm 2 mps 657 mmHg 48%
    20:00 +24°C° 0 mm 1 mps 657 mmHg 54%
    21:00 +23°C° 0 mm 1 mps 657 mmHg 57%
    22:00 +23°C° 0 mm 2 mps 657 mmHg 60%
    23:00 +21°C° 0 mm 2 mps 657 mmHg 63%
    Show more